sat.trackr.live / text

‹ back to catalog

STARLINK-37266

NORAD 68780 · 2026-086Q

PAYLOAD ACTIVE UNKNOWN

§ Identity

Operator
Country
US
Launch date
2026-04-19
Launch site
AFWTR
Launch vehicle
Mass (kg)
RCS (m²)

Purposes: comms

External: N2YO · Heavens-Above · Gunter

§ Orbital elements

Epoch: 2026-05-25T04:00:03.998880Z

Period
91.99 min
Inclination
97.2847°
Eccentricity
0.0001268
Mean motion
15.65329980 rev/d
Perigee alt
371.4 km
Apogee alt
373.1 km
Semi-major
6,750.4 km
B*
-2.1703e-2
RAAN
182.0333°
Arg perigee
82.9929°
Mean anomaly
284.2794°
Rev number
607

§ Raw data

STARLINK-372661 68780U 26086Q   26145.16671295 -.01907515  00000+0 -21703-1 0  99992 68780  97.2847 182.0333 0001268  82.9929 284.2794 15.65329980  6071

JSON: /api/v1/satellites/68780 · /tle

For live sub-satellite position, see the globe view (requires WebGL).

§ Visibility from observer

Set your observer location to see the next 7 days of passes ≥ 10°. The values pass through the URL so the page stays shareable.

No JS? Fill the form by hand. The geolocation button needs JavaScript.